Location: Beaver Dam Church
(34.5318°N, 88.9828°W)
Time: 22:46:39
(UTC+00:00)

Aureole 3 Rocket - Pass Details

Date: 29 October 2020
Orbit: 399 x 1739 km, 82.5° (Epoch: 03 December)

Event Time Altitude Azimuth Distance (km) Brightness Sun altitude
Rises 23:22:23 0° 172° (S) 2,500 6.3 -4.3°
Reaches altitude 10° 23:24:15 10° 166° (SSE) 1,726 5.4 -4.7°
Maximum altitude 23:27:51 49° 90° (E) 792 3.3 -5.4°
Drops below altitude 10° 23:32:41 10° 17° (NNE) 2,328 5.7 -6.4°
Sets 23:35:33 0° 12° (NNE) 3,492 6.7 -7.0°
